This is the latest recevied weather packets stored in our database for station/object Krupka. If no packets are shown the sender has not sent any weather packets the latest 1 day(s).
| Time | Temp. | Humidity | Pressure | Rain* | Wind** | Luminosity | Snow |
|---|---|---|---|---|---|---|---|
| 1778008504 | 12.22° C | 85% | - | - | 7.15 m/s, 12° | - | - |
| 1778008203 | 12.22° C | 84% | - | - | 7.15 m/s, 7° | - | - |
| 1778007903 | 12.22° C | 84% | - | - | 5.81 m/s, 12° | - | - |
| 1778007604 | 12.22° C | 84% | - | - | 8.05 m/s, 6° | - | - |
| 1778007304 | 12.22° C | 84% | - | - | 8.94 m/s, 10° | - | - |
| 1778007004 | 12.22° C | 84% | - | - | 8.94 m/s, 8° | - | - |
| 1778006704 | 12.22° C | 84% | - | - | 5.81 m/s, 10° | - | - |
| 1778006404 | 12.78° C | 84% | - | - | 8.94 m/s, 12° | - | - |
| 1778006103 | 12.78° C | 84% | - | - | 8.05 m/s, 7° | - | - |
| 1778005804 | 12.78° C | 83% | - | - | 8.94 m/s, 9° | - | - |
| 1778005503 | 12.78° C | 84% | - | - | 8.05 m/s, 3° | - | - |
| 1778005206 | 12.78° C | 83% | - | - | 8.05 m/s, 17° | - | - |
| 1778004903 | 12.78° C | 82% | - | - | 8.94 m/s, 4° | - | - |
| 1778004603 | 12.78° C | 82% | - | - | 8.05 m/s, 15° | - | - |
| 1778004303 | 12.78° C | 82% | - | - | 8.05 m/s, 10° | - | - |
| 1778004004 | 12.78° C | 82% | - | - | 8.05 m/s, 11° | - | - |
| 1778003703 | 12.78° C | 82% | - | - | 5.81 m/s, 12° | - | - |
| 1778003403 | 12.78° C | 82% | - | - | 9.83 m/s, 4° | - | - |
| 1778003103 | 12.78° C | 81% | - | - | 8.05 m/s, 8° | - | - |
| 1778002803 | 12.78° C | 81% | - | - | 8.05 m/s, 15° | - | - |
| 1778002504 | 12.78° C | 81% | - | - | 8.05 m/s, 10° | - | - |
| 1778002208 | 12.78° C | 81% | - | - | 8.05 m/s, 12° | - | - |
| 1778001904 | 12.78° C | 80% | - | - | 7.15 m/s, 10° | - | - |
| 1778001605 | 12.78° C | 80% | - | - | 7.15 m/s, 8° | - | - |
| 1778001303 | 12.78° C | 79% | - | - | 5.81 m/s, 4° | - | - |
* Rain since midnight (hover to see other rain measurements)
** Current wind speed in m/s (hover to see current wind gust speed)